Location: Aubervilles
(48.9167°N, 2.3833°E)
Time: 14:11:54
(UTC+00:00)

Cosmos 1655 Rocket - Pass Details

Date: 03 February 2023
Orbit: 970 x 1006 km, 83.0° (Epoch: 29 March)

Event Time Altitude Azimuth Distance (km) Brightness Sun altitude
Rises 17:24:43 0° 350° (N) 3,701 6.9 -6.0°
Reaches altitude 10° 17:27:15 10° 352° (N) 2,744 6.3 -6.4°
Maximum altitude 17:33:33 84° 80° (E) 987 4.0 -7.4°
Drops below altitude 10° 17:39:47 10° 170° (S) 2,709 6.4 -8.4°
Sets 17:42:16 0° 171° (S) 3,650 7.1 -8.8°
